Location: Unspecified
(52.0000°N, 4.4000°E)
Time: 19:46:01
(UTC+00:00)

Cosmos 1726 Rocket - Pass Details

Date: 14 May 2025
Orbit: 554 x 664 km, 82.5° (Epoch: 20 June)

Event Time Altitude Azimuth Distance (km) Brightness Sun altitude
Exits shadow 20:45:31 - 188° (S) 2,936 6.6 -9.8°
Reaches altitude 10° 20:47:41 10° 189° (S) 2,065 5.9 -10.0°
Maximum altitude 20:52:18 89° 90° (E) 654 3.7 -10.4°
Drops below altitude 10° 20:56:49 10° 11° (N) 2,028 6.8 -10.9°
Sets 20:59:02 0° 11° (NNE) 2,923 7.7 -11.1°
